KT2UU-13 Weather Reports


time (UTC)temp
C
wind
direction
speed
KPH
gust
KPH
rain 1hr
cm
rain 24hr
cm
rain mn
cm
humidity
%
barometer
mb
20260902144210 29 205 0.0 3.2 0.00 0.00 0.00 79 1021.1
20260902143706 29 213 1.6 3.2 0.00 0.00 0.00 80 1021.1
20260902143201 29 215 0.0 0.0 0.00 0.00 0.00 80 1021.2
20260902142656 29 216 0.0 0.0 0.00 0.00 0.00 79 1021.1
20260902142152 29 215 0.0 0.0 0.00 0.00 0.00 80 1021.2
20260902141652 29 215 0.0 0.0 0.00 0.00 0.00 81 1021.1
20260902141147 28 215 0.0 0.0 0.00 0.00 0.00 83 1021.2
20260902140642 28 215 0.0 0.0 0.00 0.00 0.00 83 1021.3
20260902140137 28 216 0.0 0.0 0.00 0.00 0.00 83 1021.1
20260902135636 28 209 0.0 0.0 0.00 0.00 0.00 82 1021.1
20260902135132 28 215 0.0 0.0 0.00 0.00 0.00 83 1021.3
20260902134627 27 215 0.0 0.0 0.00 0.00 0.00 84 1021.2
20260902134121 27 216 0.0 0.0 0.00 0.00 0.00 83 1021.3
20260902133622 27 215 0.0 0.0 0.00 0.00 0.00 85 1021.3
20260902133121 27 215 0.0 0.0 0.00 0.00 0.00 86 1021.2
20260902132618 27 215 0.0 0.0 0.00 0.00 0.00 86 1021.4
20260902132113 26 215 0.0 0.0 0.00 0.00 0.00 87 1021.3
20260902131609 26 215 0.0 0.0 0.00 0.00 0.00 86 1021.4
20260902131103 27 215 0.0 0.0 0.00 0.00 0.00 87 1021.2
20260902130559 27 215 0.0 0.0 0.00 0.00 0.00 86 1021.1
20260902130054 27 215 0.0 0.0 0.00 0.00 0.00 86 1021.1
20260902125550 26 215 0.0 0.0 0.00 0.00 0.00 87 1021.2
20260902125045 26 215 0.0 0.0 0.00 0.00 0.00 87 1021.1
20260902124543 26 215 0.0 0.0 0.00 0.00 0.00 89 1021.0
20260902124042 26 215 0.0 0.0 0.00 0.00 0.00 90 1021.1
20260902123538 25 215 0.0 0.0 0.00 0.00 0.00 91 1021.2
20260902123037 25 215 0.0 0.0 0.00 0.00 0.00 92 1021.0
20260902122532 24 215 0.0 0.0 0.00 0.00 0.00 96 1021.0
20260902122027 23 215 0.0 0.0 0.00 0.00 0.00 96 1021.1
20260902121522 23 215 0.0 0.0 0.00 0.00 0.00 98 1020.8
20260902121017 23 208 0.0 0.0 0.00 0.00 0.00 99 1020.8
20260902120514 22 215 0.0 0.0 0.00 0.00 0.00 99 1020.9
20260902120009 22 215 0.0 0.0 0.00 0.00 0.00 99 1021.0
20260902115504 22 215 0.0 0.0 0.00 0.00 0.00 99 1020.9
20260902115001 22 215 0.0 0.0 0.00 0.00 0.00 99 1020.9
20260902114456 21 215 0.0 0.0 0.00 0.00 0.00 99 1020.7
20260902113950 21 215 0.0 0.0 0.00 0.00 0.00 99 1020.7
20260902113447 21 215 0.0 0.0 0.00 0.00 0.00 99 1020.7
20260902112946 21 215 0.0 0.0 0.00 0.00 0.00 99 1020.8
20260902112442 21 215 0.0 0.0 0.00 0.00 0.00 99 1020.7
20260902111938 21 215 0.0 0.0 0.00 0.00 0.00 99 1020.6
20260902111434 21 215 0.0 0.0 0.00 0.00 0.00 99 1020.4
20260902110930 21 215 0.0 0.0 0.00 0.00 0.00 99 1020.6
20260902110425 21 215 0.0 0.0 0.00 0.00 0.00 99 1020.6
20260902105920 21 215 0.0 0.0 0.00 0.00 0.00 99 1020.5
20260902105415 21 215 0.0 0.0 0.00 0.00 0.00 99 1020.5
20260902104909 21 215 0.0 0.0 0.00 0.00 0.00 99 1020.3
20260902104405 21 215 0.0 0.0 0.00 0.00 0.00 99 1020.3
20260902103900 21 215 0.0 0.0 0.00 0.00 0.00 99 1020.2
20260902103354 22 215 0.0 0.0 0.00 0.00 0.00 99 1020.3
20260902102849 22 215 0.0 0.0 0.00 0.00 0.00 99 1020.2
20260902102348 21 215 0.0 0.0 0.00 0.00 0.00 99 1020.2
20260902101842 22 215 0.0 0.0 0.00 0.00 0.00 99 1020.1
20260902101336 21 215 0.0 0.0 0.00 0.00 0.00 99 1020.3
20260902100830 21 215 0.0 0.0 0.00 0.00 0.00 99 1020.3
20260902100324 22 215 0.0 0.0 0.00 0.00 0.00 99 1020.2
20260902095819 22 215 0.0 0.0 0.00 0.00 0.00 99 1020.2
20260902095314 22 215 0.0 0.0 0.00 0.00 0.00 99 1020.2
20260902094808 21 215 0.0 0.0 0.00 0.00 0.00 99 1020.2
20260902094305 22 215 0.0 0.0 0.00 0.00 0.00 99 1020.1
20260902093804 21 215 0.0 0.0 0.00 0.00 0.00 99 1020.1
20260902093259 21 215 0.0 0.0 0.00 0.00 0.00 99 1020.0
20260902092758 22 215 0.0 0.0 0.00 0.00 0.00 99 1020.1
20260902092254 22 215 0.0 0.0 0.00 0.00 0.00 99 1019.9
20260902091753 22 215 0.0 0.0 0.00 0.00 0.00 99 1020.1
20260902091249 22 215 0.0 0.0 0.00 0.00 0.00 99 1019.9
20260902090746 22 215 0.0 0.0 0.00 0.00 0.00 99 1019.9
20260902090245 22 215 0.0 0.0 0.00 0.00 0.00 99 1019.8
20260902085739 22 215 0.0 0.0 0.00 0.00 0.00 99 1019.8
20260902085234 22 215 0.0 0.0 0.00 0.00 0.00 99 1019.8
20260902084730 22 215 0.0 0.0 0.00 0.00 0.00 99 1019.8
20260902084226 22 215 0.0 0.0 0.00 0.00 0.00 99 1019.7
20260902083721 22 215 0.0 0.0 0.00 0.00 0.00 99 1019.7
20260902083221 22 215 0.0 0.0 0.00 0.00 0.00 99 1019.6
20260902082716 22 215 0.0 0.0 0.00 0.00 0.00 99 1019.5
20260902082212 22 215 0.0 0.0 0.00 0.00 0.00 99 1019.4
20260902081708 22 215 0.0 0.0 0.00 0.00 0.00 99 1019.6
20260902081203 22 215 0.0 0.0 0.00 0.00 0.00 99 1019.5
20260902080658 22 215 0.0 0.0 0.00 0.00 0.00 99 1019.5
20260902080154 22 215 0.0 0.0 0.00 0.00 0.00 99 1019.4
20260902075649 22 215 0.0 0.0 0.00 0.00 0.00 99 1019.4
20260902075145 22 215 0.0 0.0 0.00 0.00 0.00 99 1019.4
20260902074639 22 215 0.0 0.0 0.00 0.00 0.00 99 1019.2
20260902074135 22 215 0.0 0.0 0.00 0.00 0.00 99 1019.3
20260902073630 22 215 0.0 0.0 0.00 0.00 0.00 99 1019.2
20260902073126 22 215 0.0 0.0 0.00 0.00 0.00 99 1019.3
20260902072622 22 215 0.0 0.0 0.00 0.00 0.00 99 1019.1
20260902072118 22 215 0.0 0.0 0.00 0.00 0.00 99 1019.3
20260902071613 22 215 0.0 0.0 0.00 0.00 0.00 99 1019.1
20260902071109 22 215 0.0 0.0 0.00 0.00 0.00 99 1019.1
20260902070605 22 215 0.0 0.0 0.00 0.00 0.00 99 1019.3
20260902070059 22 215 0.0 0.0 0.00 0.00 0.00 99 1019.4
20260902065558 22 215 0.0 0.0 0.00 0.00 0.00 99 1019.5
20260902065054 22 215 0.0 0.0 0.00 0.00 0.00 99 1019.6
20260902064549 22 215 0.0 0.0 0.00 0.00 0.00 99 1019.5
20260902064044 22 215 0.0 0.0 0.00 0.00 0.00 99 1019.5
20260902063539 22 215 0.0 0.0 0.00 0.00 0.00 99 1019.6
20260902063035 22 215 0.0 0.0 0.00 0.00 0.00 99 1019.6
20260902062533 22 215 0.0 0.0 0.00 0.00 0.00 99 1019.6
20260902062029 22 215 0.0 0.0 0.00 0.00 0.00 99 1019.7
20260902061528 22 215 0.0 0.0 0.00 0.00 0.00 99 1019.6
20260902061024 22 215 0.0 0.0 0.00 0.00 0.00 99 1019.7
20260902060521 22 215 0.0 0.0 0.00 0.00 0.00 99 1019.7
20260902060017 22 215 0.0 0.0 0.00 0.00 0.00 98 1019.7
20260902055512 22 215 0.0 0.0 0.00 0.00 0.00 98 1019.8
20260902055008 22 215 0.0 0.0 0.00 0.00 0.00 98 1019.6
20260902054508 22 215 0.0 0.0 0.00 0.00 0.00 98 1019.6
20260902054003 22 215 0.0 0.0 0.00 0.00 0.00 98 1019.7
20260902053458 23 215 0.0 0.0 0.00 0.00 0.00 98 1019.6
20260902052957 23 215 0.0 0.0 0.00 0.00 0.00 98 1019.7
20260902052452 23 206 0.0 0.0 0.00 0.00 0.00 98 1019.7
20260902051948 23 215 0.0 0.0 0.00 0.00 0.00 97 1019.7
20260902051443 23 215 0.0 0.0 0.00 0.00 0.00 97 1019.6
20260902050941 23 215 0.0 0.0 0.00 0.00 0.00 97 1019.7
20260902050441 23 215 0.0 0.0 0.00 0.00 0.00 97 1019.6
20260902045936 23 215 0.0 0.0 0.00 0.00 0.00 97 1019.8
20260902045432 23 215 0.0 0.0 0.00 0.00 0.00 97 1019.8
20260902044928 23 206 0.0 0.0 0.00 0.00 0.00 97 1019.7
20260902044423 23 215 0.0 0.0 0.00 0.00 0.00 97 1019.5
20260902043918 23 215 0.0 0.0 0.00 0.00 0.00 97 1019.7
20260902043408 23 215 0.0 0.0 0.00 0.00 0.00 96 1019.6
20260902042903 23 215 0.0 0.0 0.00 0.00 0.00 96 1019.5
20260902042402 23 215 0.0 0.0 0.00 0.00 0.00 96 1019.8
20260902041857 23 215 0.0 0.0 0.00 0.00 0.00 96 1019.7
20260902041352 23 215 0.0 0.0 0.00 0.00 0.00 96 1019.6
20260902040850 23 215 0.0 0.0 0.00 0.00 0.00 96 1019.7
20260902040346 23 206 0.0 0.0 0.00 0.00 0.00 96 1019.5
20260902035845 23 207 0.0 0.0 0.00 0.00 0.00 95 1019.7
20260902035340 23 207 0.0 0.0 0.00 0.00 0.00 95 1019.7
20260902034839 23 215 0.0 0.0 0.00 0.00 0.00 95 1019.8
20260902034335 24 215 0.0 0.0 0.00 0.00 0.00 95 1019.6
20260902033832 24 215 0.0 0.0 0.00 0.00 0.00 95 1019.7
20260902033327 24 214 0.0 0.0 0.00 0.00 0.00 95 1019.6
20260902032826 24 215 0.0 0.0 0.00 0.00 0.00 94 1019.5
20260902032316 24 215 0.0 0.0 0.00 0.00 0.00 94 1019.6
20260902031815 24 214 0.0 0.0 0.00 0.00 0.00 93 1019.5
20260902031311 24 215 0.0 0.0 0.00 0.00 0.00 93 1019.5
20260902030801 24 215 0.0 0.0 0.00 0.00 0.00 93 1019.4
20260902030256 24 215 0.0 0.0 0.00 0.00 0.00 93 1019.6
20260902025755 24 215 0.0 0.0 0.00 0.00 0.00 93 1019.4
20260902025250 25 215 0.0 0.0 0.00 0.00 0.00 93 1019.3
20260902024744 25 214 0.0 0.0 0.00 0.00 0.00 94 1019.4
20260902024240 25 214 0.0 0.0 0.00 0.00 0.00 93 1019.4
20260902023736 25 214 0.0 0.0 0.00 0.00 0.00 93 1019.4
20260902023231 25 207 0.0 0.0 0.00 0.00 0.00 93 1019.6
20260902022730 25 214 0.0 0.0 0.00 0.00 0.00 93 1019.4
20260902022226 25 214 0.0 0.0 0.00 0.00 0.00 92 1019.3
20260902021722 25 214 0.0 0.0 0.00 0.00 0.00 92 1019.4
20260902021221 25 214 0.0 0.0 0.00 0.00 0.00 92 1019.4
20260902020718 25 214 0.0 0.0 0.00 0.00 0.00 91 1019.4
20260902020213 25 214 0.0 0.0 0.00 0.00 0.00 91 1019.1
20260902015708 25 214 0.0 0.0 0.00 0.00 0.00 92 1019.2
20260902015205 25 214 0.0 0.0 0.00 0.00 0.00 91 1019.2
20260902014700 26 214 0.0 0.0 0.00 0.00 0.00 90 1019.4
20260902014156 25 214 0.0 0.0 0.00 0.00 0.00 90 1019.2
20260902013655 26 207 0.0 0.0 0.00 0.00 0.00 90 1019.3
20260902013150 26 214 0.0 0.0 0.00 0.00 0.00 90 1019.2
20260902012646 26 214 0.0 0.0 0.00 0.00 0.00 90 1019.1
20260902012141 26 214 0.0 0.0 0.00 0.00 0.00 89 1018.9
20260902011637 26 214 0.0 0.0 0.00 0.00 0.00 87 1018.9
20260902011131 26 214 0.0 0.0 0.00 0.00 0.00 87 1019.1
20260902010630 26 214 0.0 0.0 0.00 0.00 0.00 86 1019.0
20260902010127 26 214 0.0 0.0 0.00 0.00 0.00 87 1018.8
20260902005624 26 214 0.0 0.0 0.00 0.00 0.00 87 1018.8
20260902005120 27 214 0.0 0.0 0.00 0.00 0.00 87 1018.6
20260902004619 27 214 0.0 0.0 0.00 0.00 0.00 86 1018.7
20260902004109 27 214 0.0 0.0 0.00 0.00 0.00 86 1018.7
20260902003604 27 213 0.0 0.0 0.00 0.00 0.00 85 1018.7
20260902003100 27 213 0.0 0.0 0.00 0.00 0.00 84 1018.7
20260902002555 27 213 0.0 0.0 0.00 0.00 0.00 83 1018.7
20260902002050 28 213 0.0 0.0 0.00 0.00 0.00 82 1018.7
20260902001545 28 213 0.0 0.0 0.00 0.00 0.00 81 1018.8
20260902001039 28 208 0.0 0.0 0.00 0.00 0.00 81 1018.8
20260902000534 29 213 0.0 0.0 0.00 0.00 0.00 79 1018.9
20260902000029 29 213 0.0 0.0 0.00 0.00 0.00 77 1018.8
20260901235523 30 213 0.0 0.0 0.00 0.00 0.00 75 1018.8
20260901235019 30 213 0.0 0.0 0.00 0.00 0.00 74 1019.0
20260901234518 30 213 0.0 0.0 0.00 0.00 0.00 73 1018.9
20260901234014 31 213 0.0 0.0 0.00 0.00 0.00 72 1019.1
20260901233508 32 214 0.0 0.0 0.00 0.00 0.00 68 1018.8
20260901233005 33 214 0.0 0.0 0.00 0.00 0.00 64 1019.2
20260901232500 33 214 0.0 0.0 0.00 0.00 0.00 61 1019.1
20260901231954 34 215 0.0 0.0 0.00 0.00 0.00 57 1019.0
20260901231451 34 215 0.0 0.0 0.00 0.00 0.00 57 1019.2
20260901230948 35 215 0.0 0.0 0.00 0.00 0.00 54 1019.1
20260901230446 35 215 0.0 0.0 0.00 0.00 0.00 53 1019.1
20260901225942 35 215 0.0 0.0 0.00 0.00 0.00 53 1019.0
20260901225441 34 215 0.0 0.0 0.00 0.00 0.00 53 1019.1
20260901224937 34 215 0.0 3.2 0.00 0.00 0.00 51 1019.3
20260901224433 34 215 3.2 3.2 0.00 0.00 0.00 51 1018.9
20260901223929 35 215 1.6 3.2 0.00 0.00 0.00 51 1018.9
20260901223424 35 215 0.0 3.2 0.00 0.00 0.00 50 1019.0
20260901222920 35 215 0.0 0.0 0.00 0.00 0.00 50 1018.9
20260901222416 35 215 0.0 0.0 0.00 0.00 0.00 50 1019.1
20260901221912 35 215 0.0 0.0 0.00 0.00 0.00 49 1018.7
20260901221407 35 214 1.6 4.8 0.00 0.00 0.00 51 1019.0
20260901220902 36 215 0.0 1.6 0.00 0.00 0.00 48 1018.8
20260901220401 35 215 0.0 0.0 0.00 0.00 0.00 51 1019.0
20260901215900 35 215 1.6 4.8 0.00 0.00 0.00 50 1019.0
20260901215358 35 215 1.6 3.2 0.00 0.00 0.00 50 1019.0
20260901214852 35 213 3.2 6.4 0.00 0.00 0.00 48 1019.0
20260901214350 35 215 1.6 6.4 0.00 0.00 0.00 50 1019.1
20260901213845 34 215 1.6 6.4 0.00 0.00 0.00 50 1019.0
20260901213345 35 215 1.6 3.2 0.00 0.00 0.00 48 1018.9
20260901212839 35 215 3.2 6.4 0.00 0.00 0.00 49 1019.0
20260901212330 35 215 0.0 1.6 0.00 0.00 0.00 52 1019.0
20260901211826 35 215 0.0 0.0 0.00 0.00 0.00 49 1018.8
20260901211322 35 215 1.6 1.6 0.00 0.00 0.00 51 1018.7
20260901210817 35 215 0.0 1.6 0.00 0.00 0.00 49 1018.9
20260901210313 35 215 3.2 6.4 0.00 0.00 0.00 50 1019.0
20260901205809 35 215 1.6 3.2 0.00 0.00 0.00 48 1018.9
20260901205309 35 199 1.6 1.6 0.00 0.00 0.00 49 1019.0
20260901204803 35 219 3.2 6.4 0.00 0.00 0.00 49 1019.1
20260901204259 35 215 1.6 6.4 0.00 0.00 0.00 50 1019.1
20260901203754 35 216 3.2 6.4 0.00 0.00 0.00 49 1019.2
20260901203253 34 215 1.6 6.4 0.00 0.00 0.00 48 1019.3
20260901202747 34 215 1.6 3.2 0.00 0.00 0.00 51 1019.5
20260901202243 35 215 1.6 6.4 0.00 0.00 0.00 50 1019.6
20260901201739 33 215 3.2 6.4 0.00 0.00 0.00 52 1019.3
20260901201238 34 213 3.2 9.7 0.00 0.00 0.00 52 1019.6
20260901200738 34 215 1.6 4.8 0.00 0.00 0.00 50 1019.5
20260901200234 34 215 1.6 4.8 0.00 0.00 0.00 51 1019.7
20260901195732 33 208 0.0 1.6 0.00 0.00 0.00 52 1019.6
20260901195225 34 213 0.0 1.6 0.00 0.00 0.00 51 1019.9
20260901194721 34 213 0.0 3.2 0.00 0.00 0.00 53 1019.6
20260901194216 33 216 3.2 9.7 0.00 0.00 0.00 51 1019.5
20260901193712 33 208 0.0 6.4 0.00 0.00 0.00 52 1019.8
20260901193207 34 213 1.6 4.8 0.00 0.00 0.00 54 1019.9
20260901192706 34 213 6.4 9.7 0.00 0.00 0.00 52 1019.8
20260901192201 34 215 4.8 9.7 0.00 0.00 0.00 51 1019.7
20260901191657 35 213 3.2 4.8 0.00 0.00 0.00 54 1019.8
20260901191153 35 213 0.0 3.2 0.00 0.00 0.00 52 1020.1
20260901190649 34 212 3.2 3.2 0.00 0.00 0.00 52 1020.1
20260901190148 33 212 0.0 1.6 0.00 0.00 0.00 53 1020.2
20260901185647 33 213 0.0 0.0 0.00 0.00 0.00 52 1020.4
20260901185145 33 213 1.6 9.7 0.00 0.00 0.00 55 1020.4
20260901184641 33 212 0.0 1.6 0.00 0.00 0.00 53 1020.3
20260901184136 33 213 3.2 9.7 0.00 0.00 0.00 56 1020.3
20260901183632 33 212 0.0 3.2 0.00 0.00 0.00 57 1020.3
20260901183127 32 212 0.0 3.2 0.00 0.00 0.00 60 1020.4
20260901182623 32 212 0.0 3.2 0.00 0.00 0.00 62 1020.4
20260901182122 32 212 0.0 3.2 0.00 0.00 0.00 59 1020.3
20260901181622 32 212 0.0 3.2 0.00 0.00 0.00 58 1020.5
20260901181121 32 212 3.2 4.8 0.00 0.00 0.00 59 1020.4
20260901180616 32 212 0.0 9.7 0.00 0.00 0.00 59 1020.5
20260901180110 32 212 3.2 11.3 0.00 0.00 0.00 62 1020.6
20260901175609 32 212 4.8 11.3 0.00 0.00 0.00 59 1020.8
20260901175104 32 212 4.8 11.3 0.00 0.00 0.00 61 1020.7
20260901174600 32 212 1.6 4.8 0.00 0.00 0.00 61 1020.9
20260901174055 32 212 4.8 4.8 0.00 0.00 0.00 59 1020.6
20260901173549 32 212 4.8 4.8 0.00 0.00 0.00 59 1020.8
20260901173045 32 212 1.6 3.2 0.00 0.00 0.00 60 1021.0
20260901172541 32 212 1.6 6.4 0.00 0.00 0.00 61 1021.1
20260901172038 32 212 3.2 6.4 0.00 0.00 0.00 61 1021.2
20260901171533 32 212 3.2 4.8 0.00 0.00 0.00 62 1021.1
20260901171032 32 212 1.6 11.3 0.00 0.00 0.00 60 1021.3
20260901170531 31 212 3.2 6.4 0.00 0.00 0.00 62 1021.2
20260901170026 31 211 3.2 4.8 0.00 0.00 0.00 60 1021.3
20260901165521 31 211 1.6 4.8 0.00 0.00 0.00 61 1021.5
20260901165016 32 212 4.8 4.8 0.00 0.00 0.00 63 1021.5
20260901164512 31 211 0.0 0.0 0.00 0.00 0.00 65 1021.6
20260901164006 31 211 0.0 3.2 0.00 0.00 0.00 63 1021.6
20260901163502 31 211 0.0 3.2 0.00 0.00 0.00 64 1021.7
20260901163000 31 212 1.6 3.2 0.00 0.00 0.00 64 1021.7
20260901162456 31 211 0.0 3.2 0.00 0.00 0.00 68 1021.8
20260901161955 31 211 0.0 0.0 0.00 0.00 0.00 67 1021.7
20260901161455 31 211 0.0 3.2 0.00 0.00 0.00 67 1021.9
20260901160949 31 211 0.0 0.0 0.00 0.00 0.00 68 1021.8
20260901160446 31 212 1.6 3.2 0.00 0.00 0.00 66 1021.8
20260901155944 31 211 1.6 4.8 0.00 0.00 0.00 68 1021.9
20260901155444 30 211 0.0 0.0 0.00 0.00 0.00 68 1021.9
20260901154941 30 211 1.6 4.8 0.00 0.00 0.00 69 1022.3
20260901154440 30 211 0.0 0.0 0.00 0.00 0.00 69 1022.0
20260901153935 30 211 0.0 1.6 0.00 0.00 0.00 69 1022.3
20260901153430 30 211 1.6 3.2 0.00 0.00 0.00 71 1022.2
20260901152929 30 211 0.0 0.0 0.00 0.00 0.00 72 1022.2
20260901152429 29 212 3.2 3.2 0.00 0.00 0.00 73 1022.2
20260901151929 29 211 0.0 0.0 0.00 0.00 0.00 73 1022.3
20260901151424 29 211 0.0 0.0 0.00 0.00 0.00 74 1022.2
20260901150923 29 211 1.6 3.2 0.00 0.00 0.00 75 1022.2
20260901150421 28 211 0.0 3.2 0.00 0.00 0.00 77 1022.3
20260901145918 29 211 3.2 4.8 0.00 0.00 0.00 77 1022.4
20260901145413 28 211 0.0 0.0 0.00 0.00 0.00 80 1022.4
20260901144908 28 211 0.0 1.6 0.00 0.00 0.00 81 1022.3
20260901144403 28 211 0.0 1.6 0.00 0.00 0.00 80 1022.3